Location: Unspecified
(0.0000°N, 0.0000°E)
Time: 13:49:44
(UTC+00:00)

LightSail 2 - Pass Details

Date: 18 August 2019
Orbit: 701 x 732 km, 24.0° (Epoch: 21 August)

Event Time Altitude Azimuth Distance (km) Brightness Sun altitude
Exits shadow 05:12:02 10° 296° (WNW) 2,186 7.2 -12.6°
Maximum altitude 05:17:13 90° 7° (N) 722 5.2 -11.4°
Drops below altitude 10° 05:22:28 10° 116° (ESE) 2,210 8.5 -10.1°
Sets 05:24:56 0° 116° (ESE) 3,136 9.4 -9.5°
